This demonstration page uses our WeatherBlox Daily Observations layout. Learn more.

Left ArrowRight Arrow

38.20091, -84.87328

Hourly Observations for September 19, 2022

Temp ( °F °C ) Dew Point ( °F °C ) Humidity (%) Winds ( mph kmh ) Pressure ( in mb ) Visibility ( mi km ) Precip ( " mm )
12:53 am 00:53 Clear 68 20 61 16.1 78 78 S 6 9 30.00 1016 10 16 0.00 0.00
1:53 am 01:53 Clear 66 18.9 61 16.1 84 84 SSW 5 7 30.01 1016 10 16 0.00 0.00
2:53 am 02:53 Clear 66 18.9 61 16.1 84 84 SSW 5 7 30.00 1016 10 16 0.00 0.00
3:53 am 03:53 Clear 68 20 62 16.7 81 81 S 5 7 29.99 1016 10 16 0.00 0.00
4:53 am 04:53 Clear 68 20 62 16.7 81 81 WSW 5 7 30.00 1016 10 16 0.00 0.00
5:53 am 05:53 Mostly Cloudy 68 20 63 17.2 84 84 SW 6 9 30.01 1016 10 16 0.00 0.00
6:53 am 06:53 Cloudy 68 20 63 17.2 84 84 WSW 3 6 30.03 1017 10 16 0.00 0.00
7:53 am 07:53 Partly Cloudy 69 20.6 63 17.2 81 81 SE 7 11 29.99 1016 10 16 0.00 0.00
8:53 am 08:53 Mostly Sunny 69 20.6 64 17.8 84 84 SW 9 15 30.01 1016 10 16 0.00 0.00
9:53 am 09:53 Sunny 73 22.8 64 17.8 73 73 SW 12 19 30.00 1016 10 16 0.00 0.00
10:53 am 10:53 Sunny 77 25 66 18.9 69 69 W 10 17 30.02 1017 10 16 0.00 0.00
11:53 am 11:53 Sunny 79 26.1 65 18.3 62 62 WSW 8 13 30.01 1016 10 16 0.00 0.00
12:53 pm 12:53 Sunny 81 27.2 65 18.3 58 58 WSW 9 15 29.99 1016 10 16 0.00 0.00
1:53 pm 13:53 Sunny 84 28.9 65 18.3 53 53 W 6 9 29.97 1015 10 16 0.00 0.00
2:53 pm 14:53 Sunny 85 29.4 65 18.3 51 51 SW 10 17 29.96 1014 10 16 0.00 0.00
3:53 pm 15:53 Sunny 85 29.4 65 18.3 51 51 Calm 29.94 1014 10 16 0.00 0.00
4:53 pm 16:53 Sunny 85 29.4 66 18.9 53 53 WSW 7 11 29.95 1014 10 16 0.00 0.00
5:53 pm 17:53 Cloudy 83 28.3 67 19.4 59 59 WSW 3 6 29.95 1014 10 16 0.00 0.00
6:53 pm 18:53 Cloudy 81 27.2 68 20 65 65 SW 5 7 29.96 1015 10 16 0.00 0.00
7:53 pm 19:53 Mostly Cloudy 78 25.6 69 20.6 74 74 NW 3 6 29.96 1015 10 16 0.00 0.00
8:53 pm 20:53 Mostly Cloudy 75 23.9 69 20.6 82 82 Calm 29.98 1015 10 16 0.00 0.00
9:53 pm 21:53 Mostly Clear 72 22.2 68 20 87 87 Calm 29.99 1016 10 16 0.00 0.00
10:53 pm 22:53 Clear 70 21.1 67 19.4 90 90 Calm 30.00 1016 10 16 0.00 0.00
11:53 pm 23:53 Clear 69 20.6 67 19.4 93 93 Calm 30.00 1016 10 16 0.00 0.00

Powered by AerisWeather